Weather History for KPZQ - March, 2013

Change the Weather History Date:

Wednesday, March 20, 2013

  Actual Average (KAPN) Record (KAPN)
Temperature  
Mean Temperature 23 °F 30 °F  
Max Temperature 28 °F 40 °F 84 °F (2012)
Min Temperature 18 °F 21 °F -12 °F (1923)
Degree Days  
Heating Degree Days 42 35  
Month to date heating degree days 768  
Since 1 July heating degree days 6500  
Cooling Degree Days 0 0  
Month to date cooling degree days 0  
Year to date cooling degree days 0  
Moisture  
Dew Point 15 °F    
Average Humidity 72    
Maximum Humidity 85    
Minimum Humidity 50    
Precipitation  
Precipitation 0.00 in 0.06 in 0.87 in (1921)
Month to date precipitation 1.15  
Year to date precipitation 4.13  
Snow  
Snow 0.00 in 0.30 in 3.70 in (1989)
Month to date snowfall 8.7  
Since 1 July snowfall 74.8  
Snow Depth -    
Sea Level Pressure  
Sea Level Pressure 29.78 in    
Wind  
Wind Speed 11 mph (West)    
Max Wind Speed 22 mph    
Max Gust Speed 30 mph    
Visibility 10 miles    
Events Snow    
T = Trace of Precipitation, MM = Missing Value Source: NWS Daily Summary

Daily Weather History Graph

Daily Weather History Graph

Search for Another Location

Airport or City:

Trip Planner

Search our weather history database for the weather conditions in past years. The results will help you decide how hot, cold, wet, or windy it might be!

Date:

Astronomy

Mar. 20, 2013 Rise Set
Actual Time 7:37 AM EDT 7:48 PM EDT
Civil Twilight 7:08 AM EDT 8:17 PM EDT
Nautical Twilight 6:33 AM EDT 8:52 PM EDT
Astronomical Twilight 5:58 AM EDT 9:28 PM EDT
Moon 1:07 PM EDT (3/20) 3:32 AM EDT (3/20)
Length of Visible Light 13h 09m
Length of Day
12h 10m
First Quarter, 59% of the Moon is Illuminated
Mar 20
First Quarter
Mar 27
Full
Apr 3
Last Quarter
Apr 10
New
Apr 18
First Quarter

Hourly Weather History & Observations

Time (EDT) Temp. Windchill Dew Point Humidity Pressure Visibility Wind Dir Wind Speed Gust Speed Precip Events Conditions
12:15 AM 23.7 °F 14.7 °F 17.6 °F 77% 29.76 in 10.0 mi West 8.1 mph 16.1 mph N/A   Clear
12:35 AM 23.0 °F 13.1 °F 17.6 °F 80% 29.77 in 10.0 mi West 9.2 mph - N/A   Clear
12:55 AM 23.0 °F 12.4 °F 16.7 °F 77% 29.76 in 10.0 mi West 10.4 mph 17.3 mph N/A   Clear
1:15 AM 22.5 °F 12.4 °F 16.9 °F 79% 29.77 in 10.0 mi West 9.2 mph 17.3 mph N/A   Clear
1:35 AM 22.1 °F 12.0 °F 17.4 °F 82% 29.77 in 10.0 mi West 9.2 mph - N/A   Clear
1:55 AM 22.1 °F 11.3 °F 17.4 °F 82% 29.77 in 10.0 mi West 10.4 mph - N/A   Clear
2:15 AM 21.9 °F 11.0 °F 17.6 °F 83% 29.77 in 10.0 mi West 10.4 mph 17.3 mph N/A   Clear
2:35 AM 21.9 °F 11.7 °F 17.2 °F 82% 29.77 in 10.0 mi West 9.2 mph 17.3 mph N/A   Clear
2:55 AM 21.6 °F 11.3 °F 16.7 °F 82% 29.78 in 10.0 mi West 9.2 mph - N/A   Clear
3:15 AM 20.8 °F 11.2 °F 16.0 °F 81% 29.78 in 10.0 mi West 8.1 mph - N/A   Clear
3:35 AM 20.7 °F 11.0 °F 15.8 °F 81% 29.77 in 10.0 mi West 8.1 mph - N/A   Clear
3:55 AM 20.3 °F 9.8 °F 15.6 °F 82% 29.77 in 10.0 mi WSW 9.2 mph - N/A   Clear
4:15 AM 19.9 °F 10.1 °F 15.4 °F 83% 29.77 in 10.0 mi West 8.1 mph - N/A   Clear
4:35 AM 20.1 °F 9.5 °F 15.6 °F 83% 29.77 in 10.0 mi West 9.2 mph - N/A   Clear
4:55 AM 19.8 °F 9.9 °F 15.4 °F 83% 29.77 in 10.0 mi West 8.1 mph - N/A   Clear
5:15 AM 19.6 °F 10.6 °F 15.6 °F 85% 29.77 in 10.0 mi WSW 6.9 mph - N/A   Clear
5:35 AM 19.9 °F 11.1 °F 15.6 °F 83% 29.77 in 10.0 mi West 6.9 mph - N/A   Clear
5:55 AM 19.4 °F 10.4 °F 15.3 °F 84% 29.77 in 10.0 mi West 6.9 mph - N/A   Clear
6:15 AM 19.4 °F 10.4 °F 15.1 °F 83% 29.78 in 10.0 mi West 6.9 mph - N/A   Clear
6:35 AM 18.7 °F 11.9 °F 14.7 °F 85% 29.78 in 10.0 mi West 4.6 mph - N/A   Clear
6:55 AM 18.3 °F 8.2 °F 14.5 °F 85% 29.78 in 10.0 mi West 8.1 mph - N/A   Clear
7:15 AM 18.5 °F 10.4 °F 14.0 °F 83% 29.78 in 10.0 mi West 5.8 mph - N/A   Clear
7:35 AM 18.1 °F 7.9 °F 13.6 °F 83% 29.78 in 10.0 mi WSW 8.1 mph - N/A   Clear
7:55 AM 18.0 °F 8.7 °F 13.8 °F 84% 29.78 in 10.0 mi West 6.9 mph - N/A   Clear
8:15 AM 18.9 °F 9.8 °F 14.4 °F 83% 29.78 in 10.0 mi WSW 6.9 mph - N/A   Clear
8:35 AM 19.8 °F 9.9 °F 14.4 °F 80% 29.78 in 10.0 mi West 8.1 mph - N/A   Clear
8:55 AM 20.8 °F 11.2 °F 14.0 °F 75% 29.78 in 10.0 mi West 8.1 mph - N/A   Clear
9:15 AM 21.7 °F 9.0 °F 13.6 °F 71% 29.77 in 10.0 mi West 13.8 mph 19.6 mph N/A   Clear
9:35 AM 22.5 °F 12.4 °F 13.3 °F 68% 29.77 in 10.0 mi West 9.2 mph 20.7 mph N/A   Clear
9:55 AM 23.7 °F 13.3 °F 13.5 °F 65% 29.78 in 10.0 mi West 10.4 mph 18.4 mph N/A   Clear
10:15 AM 23.9 °F 10.8 °F 12.6 °F 62% 29.78 in 10.0 mi West 16.1 mph 25.3 mph N/A   Clear
10:35 AM 24.6 °F 10.9 °F 12.0 °F 59% 29.77 in 10.0 mi West 18.4 mph 26.5 mph N/A   Clear
10:55 AM 25.3 °F 13.1 °F 12.7 °F 59% 29.77 in 10.0 mi West 15.0 mph 25.3 mph N/A   Clear
11:15 AM 25.3 °F 12.6 °F 12.6 °F 58% 29.77 in 10.0 mi West 16.1 mph 23.0 mph N/A   Clear
11:55 AM 26.6 °F 15.7 °F 12.9 °F 56% 29.78 in 10.0 mi West 12.7 mph 20.7 mph N/A   Mostly Cloudy
12:15 PM 27.0 °F 16.1 °F 12.6 °F 55% 29.78 in 10.0 mi West 12.7 mph 19.6 mph N/A   Mostly Cloudy
12:35 PM 27.5 °F 16.3 °F 12.0 °F 52% 29.78 in 10.0 mi West 13.8 mph 23.0 mph N/A   Mostly Cloudy
12:55 PM 27.3 °F 14.8 °F 11.3 °F 51% 29.77 in 10.0 mi WSW 17.3 mph 21.9 mph N/A   Scattered Clouds
1:12 PM 28.0 °F 16.1 °F 11.5 °F 50% 29.77 in 10.0 mi West 16.1 mph 24.2 mph N/A   Scattered Clouds
1:35 PM 27.7 °F 16.6 °F 11.5 °F 51% 29.77 in 10.0 mi West 13.8 mph 21.9 mph N/A   Mostly Cloudy
1:55 PM 27.9 °F 15.5 °F 12.9 °F 54% 29.77 in 10.0 mi WSW 17.3 mph 25.3 mph N/A   Scattered Clouds
2:15 PM 28.8 °F 17.5 °F 12.6 °F 51% 29.77 in 10.0 mi WSW 15.0 mph 24.2 mph N/A   Mostly Cloudy
2:35 PM 28.0 °F 16.5 °F 12.6 °F 52% 29.77 in 10.0 mi West 15.0 mph 23.0 mph N/A   Overcast
2:55 PM 28.8 °F 17.9 °F 12.7 °F 51% 29.77 in 10.0 mi WSW 13.8 mph 18.4 mph N/A   Mostly Cloudy
3:15 PM 28.6 °F 17.2 °F 13.1 °F 52% 29.77 in 10.0 mi West 15.0 mph 20.7 mph N/A   Mostly Cloudy
3:35 PM 28.0 °F 18.1 °F 14.0 °F 56% 29.77 in 10.0 mi West 11.5 mph 23.0 mph N/A   Overcast
3:55 PM 28.0 °F 16.5 °F 13.5 °F 54% 29.77 in 10.0 mi WSW 15.0 mph 23.0 mph N/A   Overcast
4:14 PM 27.7 °F 13.8 °F 13.3 °F 55% 29.77 in 10.0 mi WSW 21.9 mph 29.9 mph N/A   Overcast
4:35 PM 28.4 °F 18.0 °F 13.6 °F 54% 29.77 in 10.0 mi WSW 12.7 mph 21.9 mph N/A   Overcast
4:55 PM 27.5 °F 15.9 °F 14.0 °F 57% 29.77 in 10.0 mi WSW 15.0 mph 24.2 mph N/A   Overcast
5:15 PM 27.3 °F 15.2 °F 14.2 °F 58% 29.77 in 10.0 mi WSW 16.1 mph 26.5 mph N/A   Overcast
5:35 PM 27.0 °F 14.7 °F 14.0 °F 58% 29.78 in 10.0 mi West 16.1 mph 27.6 mph N/A   Overcast
5:55 PM 26.6 °F 13.4 °F 14.7 °F 61% 29.78 in 10.0 mi WSW 18.4 mph 27.6 mph N/A   Overcast
6:15 PM 26.6 °F 13.4 °F 14.9 °F 61% 29.79 in 10.0 mi WSW 18.4 mph 21.9 mph N/A   Overcast
6:35 PM 26.4 °F 14.5 °F 15.4 °F 63% 29.79 in 10.0 mi WSW 15.0 mph 28.8 mph N/A   Overcast
6:55 PM 25.7 °F 11.9 °F 16.3 °F 68% 29.79 in 10.0 mi WSW 19.6 mph 24.2 mph N/A   Overcast
7:15 PM 25.3 °F 13.1 °F 17.1 °F 71% 29.80 in 10.0 mi West 15.0 mph 26.5 mph N/A Snow Light Snow
7:35 PM 24.8 °F 11.9 °F 18.1 °F 76% 29.80 in 4.0 mi West 16.1 mph 23.0 mph N/A Snow Light Snow
7:55 PM 24.4 °F 13.0 °F 18.3 °F 78% 29.80 in 5.0 mi West 12.7 mph 21.9 mph N/A Snow Light Snow
8:15 PM 23.9 °F 12.3 °F 18.1 °F 79% 29.80 in 10.0 mi West 12.7 mph 21.9 mph N/A Snow Light Snow
8:35 PM 23.9 °F 11.2 °F 18.1 °F 79% 29.80 in 10.0 mi West 15.0 mph 18.4 mph N/A Snow Light Snow
8:55 PM 23.9 °F 11.7 °F 18.3 °F 79% 29.80 in 10.0 mi WSW 13.8 mph 21.9 mph N/A Snow Light Snow
9:15 PM 23.9 °F 12.9 °F 18.9 °F 81% 29.79 in 2.5 mi West 11.5 mph 20.7 mph N/A Snow Light Snow
9:35 PM 23.4 °F 12.2 °F 18.9 °F 83% 29.79 in 10.0 mi WSW 11.5 mph 17.3 mph N/A Snow Light Snow
9:55 PM 23.2 °F 12.6 °F 18.5 °F 82% 29.78 in 7.0 mi West 10.4 mph - N/A   Overcast
10:15 PM 23.4 °F 12.8 °F 18.9 °F 83% 29.78 in 10.0 mi West 10.4 mph 17.3 mph N/A Snow Light Snow
10:35 PM 23.7 °F 13.3 °F 19.2 °F 83% 29.78 in 10.0 mi WSW 10.4 mph - N/A Snow Light Snow
10:55 PM 23.9 °F 12.9 °F 19.4 °F 83% 29.78 in 10.0 mi WSW 11.5 mph 16.1 mph N/A Snow Light Snow
11:15 PM 24.3 °F 14.6 °F 19.9 °F 84% 29.77 in 10.0 mi West 9.2 mph 17.3 mph N/A   Overcast
11:35 PM 24.6 °F 14.4 °F 20.3 °F 84% 29.77 in 10.0 mi West 10.4 mph 16.1 mph N/A   Overcast
11:55 PM 24.6 °F 13.8 °F 20.7 °F 85% 29.77 in 7.0 mi West 11.5 mph - N/A Snow Light Snow